Date,TemperatureHighF,TemperatureAvgF,TemperatureLowF,DewpointHighF,DewpointAvgF,DewpointLowF,HumidityHigh,HumidityAvg,HumidityLow,PressureMaxIn,PressureMinIn,WindSpeedMaxMPH,WindSpeedAvgMPH,GustSpeedMaxMPH,PrecipitationSumIn
2013-3-1,42,31,23,-100,-100,-100,0,0,100,0.00,40.00,0,-999,0,0.01
2013-3-2,41,34,26,-100,-100,-100,0,0,100,0.00,40.00,0,-999,0,0.00
2013-3-3,34,30,17,-100,-100,-100,0,0,100,0.00,40.00,0,-999,0,0.03
2013-3-4,29,14,6,-100,-100,-100,0,0,100,0.00,40.00,0,-999,0,0.01
2013-3-5,36,19,3,-100,-100,-100,0,0,100,0.00,40.00,0,-999,0,0.01
2013-3-6,36,26,20,-100,-100,-100,0,0,100,0.00,40.00,0,-999,0,0.01
2013-3-7,36,25,15,-100,-100,-100,0,0,100,0.00,40.00,0,-999,0,0.01
2013-3-8,38,30,21,-100,-100,-100,0,0,100,0.00,40.00,0,-999,0,0.01
2013-3-9,48,26,17,-100,-100,-100,0,0,100,0.00,40.00,0,-999,0,0.00
2013-3-10,44,26,14,-100,-100,-100,0,0,100,0.00,40.00,0,-999,0,0.00
2013-3-11,32,28,24,-100,-100,-100,0,0,100,0.00,40.00,0,-999,0,0.01
2013-3-12,40,30,17,-100,-100,-100,0,0,100,0.00,40.00,0,-999,0,0.01
2013-3-13,50,39,33,-100,-100,-100,0,0,100,0.00,40.00,0,-999,0,0.01
2013-3-14,53,41,31,-100,-100,-100,0,0,100,0.00,40.00,0,-999,0,0.00
2013-3-15,47,42,36,-100,-100,-100,0,0,100,0.00,40.00,0,-999,0,0.00
2013-3-16,51,35,30,-100,-100,-100,0,0,100,0.00,40.00,0,-999,0,0.00
2013-3-17,32,23,17,-100,-100,-100,0,0,100,0.00,40.00,0,-999,0,0.02
2013-3-18,30,20,12,-100,-100,-100,0,0,100,0.00,40.00,0,-999,0,0.01
2013-3-19,40,24,14,-100,-100,-100,0,0,100,0.00,40.00,0,-999,0,0.01
2013-3-20,36,28,18,-100,-100,-100,0,0,100,0.00,40.00,0,-999,0,0.02
2013-3-21,32,24,14,-100,-100,-100,0,0,100,0.00,40.00,0,-999,0,0.04
2013-3-22,24,16,6,-100,-100,-100,0,0,100,0.00,40.00,0,-999,0,0.01
2013-3-23,31,11,1,-100,-100,-100,0,0,100,0.00,40.00,0,-999,0,0.00
2013-3-24,28,11,2,-100,-100,-100,0,0,100,0.00,40.00,0,-999,0,0.00
2013-3-25,35,18,1,-100,-100,-100,0,0,100,0.00,40.00,0,-999,0,0.00
2013-3-26,42,26,14,-100,-100,-100,0,0,100,0.00,40.00,0,-999,0,0.01
2013-3-27,43,32,26,-100,-100,-100,0,0,100,0.00,40.00,0,-999,0,0.01
2013-3-28,54,36,25,-100,-100,-100,0,0,100,0.00,40.00,0,-999,0,0.00
2013-3-29,52,39,32,-100,-100,-100,0,0,100,0.00,40.00,0,-999,0,0.02
2013-3-30,49,37,29,-100,-100,-100,0,0,100,0.00,40.00,0,-999,0,0.01
2013-3-31,57,38,28,-100,-100,-100,0,0,100,0.00,40.00,0,-999,0,0.00